Content
SEND FEEDBACK

Daily
Averages
Monthly
Summary
United States of America

DES PLAINES, ILLINOIS


Home > North America > United States > Illinois
Elevation: 651 feet     Latitude: 42 00N     Longitude: 087 54W

WEATHER
 
SELECT A DAY
Number of Records: 194,984;   Date Range: 7/8/95 - 8/28/14
 
SHARE

PRINT THIS DATA

[ ← Previous Day ]
WEATHER ALMANAC - MARCH 17, 2013
[ Next Day → ]
[ °C ]   °F
Weather ElementAverageHighLow
Temperature29.3 °F33.8 °F (3:38 pm)24.1 °F (6:52 am)
Dewpoint19.2 °F23 °F (9:52 pm)15.1 °F (4:52 am)
Humidity66 %72 % (10:52 pm)60 % (3:38 pm)
Barometer30.17 in30.25 in (9:52 am)30.04 in (11:52 pm)
Wind Speed9.9 mph13.8 mph (12:52 pm)
Wind Gust20.7 mph (9:32 am)
Weather ElementAverage
Visibility10 mi
Wind DirectionS (180.4 °)

Weather ElementTotal
Precipitation---
Heating Degree Days36.1 (Base 65)
Averaged from 28 records on March 17, 2013
WEATHER CONDITIONS BREAKOUT
WIND DIRECTION BREAKOUT
WEATHER BY HOUR - MARCH 17, 2013
[ °C ]   °F
Local TimeTemperatureDewpointHumidityBarometerVisibilityWind DirectionWind SpeedGust SpeedPrecipitationEventsConditions
1:52 AM28.9 °F19.0 °F67 %30.17 in10.0 miNNW (330°)11.5 mphOvercast
2:07 AM28.4 °F19.4 °F69 %30.14 in10.0 miNNW (330°)8.1 mphOvercast
2:52 AM28.9 °F18.0 °F64 %30.17 in10.0 miNNW (340°)9.2 mphOvercast
3:12 AM28.4 °F19.4 °F69 %30.14 in10.0 miNorth (350°)12.7 mph16.1 mphOvercast
3:44 AM26.6 °F15.8 °F64 %30.14 in10.0 miNorth (360°)11.5 mphScattered Clouds
3:52 AM27.0 °F16.0 °F63 %30.17 in10.0 miNorth (360°)8.1 mphPartly Cloudy
4:52 AM26.1 °F15.1 °F63 %30.17 in10.0 miNNE (20°)11.5 mphClear
5:52 AM25.0 °F15.1 °F66 %30.20 in10.0 miNorth (350°)5.8 mphClear
6:52 AM24.1 °F15.1 °F69 %30.22 in10.0 miNorth (350°)6.9 mphMostly Cloudy
7:52 AM25.0 °F16.0 °F69 %30.23 in10.0 miNorth (350°)5.8 mphMostly Cloudy
8:41 AM26.6 °F17.6 °F69 %30.21 in10.0 miNNW (340°)3.5 mphOvercast
8:52 AM26.1 °F18.0 °F71 %30.24 in10.0 miNNW (340°)5.8 mphOvercast
9:32 AM30.2 °F19.4 °F64 %30.21 in10.0 miENE (60°)12.7 mph20.7 mphOvercast
9:52 AM30.0 °F19.0 °F64 %30.25 in10.0 miENE (70°)8.1 mph19.6 mphOvercast
11:52 AM30.9 °F19.0 °F61 %30.25 in10.0 miENE (70°)11.5 mph18.4 mphOvercast
12:52 PM30.0 °F19.9 °F66 %30.24 in10.0 miENE (60°)13.8 mph19.6 mphOvercast
1:52 PM30.9 °F19.0 °F61 %30.21 in10.0 miENE (70°)10.4 mphOvercast
2:00 PM30.2 °F19.4 °F64 %30.19 in10.0 miENE (70°)11.5 mph17.3 mphOvercast
2:52 PM30.9 °F21.0 °F67 %30.18 in10.0 miENE (60°)12.7 mph19.6 mphMostly Cloudy
3:38 PM33.8 °F21.2 °F60 %30.15 in10.0 miEast (80°)11.5 mph19.6 mphScattered Clouds
3:52 PM33.1 °F21.0 °F61 %30.17 in10.0 miENE (70°)10.4 mph18.4 mphPartly Cloudy
4:52 PM32.0 °F21.9 °F66 %30.14 in10.0 miEast (90°)10.4 mphClear
5:52 PM30.9 °F21.0 °F67 %30.15 in10.0 miENE (70°)12.7 mphClear
6:52 PM30.0 °F21.0 °F69 %30.14 in10.0 miEast (80°)6.9 mphClear
7:52 PM30.9 °F21.9 °F69 %30.13 in10.0 miENE (70°)8.1 mphClear
9:52 PM33.1 °F23.0 °F66 %30.08 in10.0 miEast (90°)11.5 mph17.3 mphClear
10:52 PM30.9 °F23.0 °F72 %30.07 in10.0 miESE (110°)12.7 mph18.4 mphClear
11:52 PM30.9 °F21.9 °F69 %30.04 in10.0 miESE (110°)12.7 mphClear
Hourly data recorded from KPWK, located miles away from Des Plaines, Illinois







STORIES FROM OUR PARTNERS